Location: Bad Dürkheim
(49.4618°N, 8.1724°E)
Time: 21:04:56
(UTC+00:00)

COSMOS 2455 - Pass Details

Date: 14 June 2025
Orbit: 899 x 909 km, 67.1° (Epoch: 16 July)

Event Time Altitude Azimuth Distance (km) Brightness Sun altitude
Rises 21:37:57 0° 317° (NW) 3,547 7.5 -13.2°
Reaches altitude 10° 21:40:51 10° 306° (NW) 2,601 6.2 -13.4°
Maximum altitude 21:45:42 26° 252° (WSW) 1,710 4.4 -13.8°
Enters shadow 21:50:28 10° 198° (SSW) 2,562 4.8 -14.1°
